Location: Beuvrequen
(50.8014°N, 1.6652°E)
Time: 03:13:16
(UTC+00:00)

Cosmos 1932 - Pass Details

Date: 16 October 2021
Orbit: 943 x 987 km, 65.0° (Epoch: 28 November)

Event Time Altitude Azimuth Distance (km) Brightness Sun altitude
Rises 19:59:52 0° 318° (NW) 3,618 8.4 -29.0°
Reaches altitude 10° 20:02:26 10° 321° (NW) 2,672 7.5 -29.3°
Enters shadow 20:08:10 70° 7° (N) 1,006 4.5 -30.2°
